Regional Weather Roundup
Issued by NWS

Home | Current Version | Previous Version | Text Only | Print | Product List | Glossary Off
Versions: 1 2 3 4 5 6 7 8 9 10 11 12 13 14 15 16 17 18 19 20 21 22 23 24 25 26 27 28 29 30 31 32 33 34 35 36 37 38 39 40 41 42 43 44 45 46 47 48 49 50

000
ASUS43 KLOT 060310
RWRIL

ILLINOIS REGIONAL WEATHER ROUNDUP
NATIONAL WEATHER SERVICE CHICAGO/ROMEOVILLE IL
900 PM CST THU MAR 05 2015

NOTE: "FAIR" INDICATES FEW OR NO CLOUDS BELOW 12,000 FEET WITH NO
SIGNIFICANT WEATHER AND/OR OBSTRUCTIONS TO VISIBILITY.

* THESE STATIONS ARE NOT UNDER NWS QUALITY CONTROL. THEY ALSO MAY NOT
  REPORT WEATHER SUCH AS PRECIPITATION OR FOG.

ILZ001-002-007-009-015-016-024-060400-
NORTHWEST ILLINOIS

CITY           SKY/WX    TMP DP  RH WIND       PRES   REMARKS
MOLINE         MOCLDY     5  -3  69 CALM      30.56S
STERLING*      MOCLDY     5  -2  72 CALM      30.54S
SAVANNA*       MOCLDY     1  -7  68 CALM      30.55R
$$

ILZ003-004-008-010-011-017-018-060400-
NORTH CENTRAL ILLINOIS

CITY           SKY/WX    TMP DP  RH WIND       PRES   REMARKS
ROCKFORD       MOCLDY     5  -4  66 SW5       30.54R WCI  -4
FREEPORT*      MOCLDY     3  -6  66 SW7       30.53S WCI  -9
ROCHELLE*      MOCLDY     0  -5  78 SW5       30.54S WCI -10
DE KALB*       MOCLDY     4  -3  71 W8        30.53R WCI  -9
PERU*          MOCLDY     8  -1  69 W6        30.57S WCI  -3
$$

ILZ005-006-012>014-019>023-060400-
NORTHEAST ILLINOIS

CITY           SKY/WX    TMP DP  RH WIND       PRES   REMARKS
CHICAGO-OHARE  PTCLDY     9  -3  58 SW5       30.53S WCI   1
CHICAGO-MIDWAY PTCLDY    13  -1  54 W8        30.55S WCI   2
AURORA         PTCLDY     6  -3  66 SW7       30.55R WCI  -6
LANSING*       PTCLDY     8  -1  64 SW3       30.55S
JOLIET*        PTCLDY     8  -1  67 W5        30.57R WCI  -1
WAUKEGAN       PTCLDY     1  -7  68 CALM      30.51S
DUPAGE AIRPORT PTCLDY     5  -4  66 SW8       30.53S WCI  -8
KANKAKEE*      MOCLDY     3  -3  77 W5        30.57F WCI  -6
WHEELING       PTCLDY    10  -3  55 SW5       30.54F WCI   2
MORRIS*        MOCLDY     3  -2  77 W6        30.56S WCI  -8
ROMEOVILLE*    PTCLDY     5  -2  71 W9        30.55S WCI  -9
NORTHERLY ISL    N/A     13   0  56 W7          N/A  WCI   3
$$

LMZ740>746-060400-
SOUTHERN LAKE MICHIGAN

STATION/POSITION SKY/WX   TEMP    WIND        PRES    VSBY  WAVE
                          AIR SEA DIR/SP/G                  HT/PER
                          (F)     (DEG/KT/KT) (MB)    (MI)  (FT/S)
WAUKEGAN HARBOR            10                   N/A
HARRISON CRIB              13     270/ 12/ 14   N/A
BURNHAM HARBOR             13     270/  7/ 11   N/A
CALUMET HARBOR             12     250/  7/ 10 1032.9R
MICHIGAN CITY              13     190/  8/  8   N/A
$$

ILZ025>027-034>036-040-047-049-050-058-095>099-060400-
WEST-CENTRAL ILLINOIS

CITY           SKY/WX    TMP DP  RH WIND       PRES   REMARKS
QUINCY         PTCLDY    12   1  61 E6        30.55F WCI   3
GALESBURG*     MOCLDY     1  -2  86 CALM      30.56R
MACOMB*        MOCLDY     3  -1  83 CALM      30.59S
JACKSONVILLE*  PTCLDY     7  -3  65 E6        30.59S WCI  -3
PITTSFIELD*    PTCLDY    11   3  71 CALM      30.58S
$$

ILZ028>032-037-038-041>044-048-051>054-059>061-060400-
CENTRAL ILLINOIS

CITY           SKY/WX    TMP DP  RH WIND       PRES   REMARKS
PONTIAC        PTCLDY     5  -1  79 SW5       30.58S WCI  -4
BLOOMINGTON    PTCLDY     3  -2  80 CALM      30.57S
DECATUR        PTCLDY     8  -1  66 W3        30.59R
PEORIA         PTCLDY     8  -2  63 CALM      30.59S
LACON*         PTCLDY     3  -4  75 CALM      30.58R
LINCOLN*       MOCLDY     9   2  71 CALM      30.62S
SPRINGFIELD    PTCLDY     5  -3  69 CALM      30.60S
TAYLORVILLE    MOCLDY     9   3  78 CALM      30.59F
$$

ILZ033-039-045-046-055>057-062-063-060400-
EAST-CENTRAL ILLINOIS

CITY           SKY/WX    TMP DP  RH WIND       PRES   REMARKS
CHAMPAIGN      PTCLDY    -1  -6  79 CALM      30.57F
DANVILLE*      MOCLDY     0  -4  85 CALM      30.56R
RANTOUL*       PTCLDY    -2  -6  84 CALM      30.58S
MATTOON        PTCLDY     5  -2  72 CALM      30.58S
PARIS*         PTCLDY     0  -4  82 CALM      30.60S
$$

ILZ079-100>102-060400-
SOUTHWEST ILLINOIS

CITY           SKY/WX    TMP DP  RH WIND       PRES   REMARKS
BELLEVILLE     CLEAR     16   7  66 N2        30.60R
CAHOKIA*       CLEAR     18   8  65 E5        30.61R WCI  11
SPARTA*        CLEAR     15   7  69 CALM      30.61R
$$

ILZ064>066-069>071-074>076-080>082-084>086-088>090-092>094-060400-
SOUTH-CENTRAL ILLINOIS

CITY           SKY/WX    TMP DP  RH WIND       PRES   REMARKS
CARBONDALE     CLEAR     11   3  70 NE5       30.60S WCI   3
CAIRO*         PTCLDY    19   7  59 N3        30.60S
EFFINGHAM*     PTCLDY     8  -1  67 CALM      30.63R
MARION         CLEAR      7   3  85 CALM      30.61R
MT. VERNON     CLEAR     10   0  61 N3        30.60S
CENTRALIA*     PTCLDY    12   4  70 CALM      30.60S
SALEM*         PTCLDY    13   4  68 CALM      30.60S
METROPOLIS*    MOCLDY    14   7  76 NE3       30.59S
$$

ILZ067-068-072-073-078-083-087-091-060400-
SOUTHEAST ILLINOIS

CITY           SKY/WX    TMP DP  RH WIND       PRES   REMARKS
LAWRENCEVILLE  CLEAR     11   2  67 N6        30.61S WCI   1
FLORA*         CLEAR     12   3  66 CALM      30.62R
FAIRFIELD*     PTCLDY    10   3  74 CALM      30.61R
HARRISBURG*    PTCLDY    13   2  60 N7        30.62S WCI   3
ROBINSON*      PTCLDY     7   1  78 N5        30.62S WCI  -2
CARMI*         PTCLDY     9   4  82 NW5       30.62R WCI   1
$$

ABBREVIATIONS USED IN REMARKS
   TC - TEMPERATURE IN CELSIUS
  WCI - WIND CHILL INDEX
   HX - HEAT INDEX
  VSB - VISIBILITY
$$




USA.gov is the U.S. government's official web portal to all federal, state and local government web resources and services.